| time (UTC) | temp F | wind direction | speed MPH | gust MPH | rain 1hr in | rain 24hr in | rain mn in | humidity % | barometer mb |
| 20260508025134 | 58 | 21 | 1.0 | 3.0 | 0.00 | 0.00 | 0.00 | 77 | 1010.2 |
| 20260508024154 | 58 | 30 | 1.0 | 3.0 | 0.00 | 0.00 | 0.00 | 77 | 1010.2 |
| 20260508023210 | 58 | 31 | 1.0 | 2.0 | 0.00 | 0.00 | 0.00 | 78 | 1010.4 |
| 20260508021027 | 59 | 31 | 0.0 | 0.0 | 0.00 | 0.00 | 0.00 | 77 | 1010.5 |
| 20260508020027 | 59 | 22 | 0.0 | 2.0 | 0.00 | 0.00 | 0.00 | 77 | 1010.6 |
| 20260508015040 | 59 | 22 | 0.0 | 2.0 | 0.00 | 0.00 | 0.00 | 77 | 1010.6 |
| 20260508014027 | 59 | 23 | 0.0 | 2.0 | 0.00 | 0.00 | 0.00 | 77 | 1010.6 |
| 20260508013032 | 59 | 37 | 0.0 | 2.0 | 0.00 | 0.00 | 0.00 | 77 | 1010.7 |
| 20260508012024 | 59 | 40 | 1.0 | 2.0 | 0.00 | 0.00 | 0.00 | 77 | 1010.7 |
| 20260508011019 | 59 | 40 | 1.0 | 2.0 | 0.00 | 0.00 | 0.00 | 77 | 1010.7 |
| 20260508004929 | 59 | 40 | 0.0 | 1.0 | 0.00 | 0.01 | 0.00 | 76 | 1011.0 |
| 20260508003901 | 60 | 42 | 0.0 | 0.0 | 0.00 | 0.02 | 0.00 | 76 | 1011.1 |
| 20260508002911 | 60 | 41 | 0.0 | 1.0 | 0.00 | 0.03 | 0.00 | 76 | 1011.2 |
| 20260508001839 | 60 | 38 | 0.0 | 1.0 | 0.00 | 0.03 | 0.00 | 76 | 1011.3 |
| 20260508000806 | 60 | 38 | 0.0 | 1.0 | 0.00 | 0.03 | 0.00 | 76 | 1011.3 |
| 20260507235742 | 60 | 38 | 1.0 | 2.0 | 0.00 | 0.03 | 0.00 | 76 | 1011.4 |
| 20260507234730 | 59 | 38 | 0.0 | 2.0 | 0.00 | 0.03 | 0.00 | 76 | 1011.4 |
| 20260507233740 | 59 | 38 | 0.0 | 2.0 | 0.00 | 0.03 | 0.00 | 76 | 1011.5 |
| 20260507232739 | 59 | 15 | 0.0 | 2.0 | 0.00 | 0.03 | 0.00 | 76 | 1011.5 |
| 20260507231715 | 59 | 13 | 0.0 | 2.0 | 0.00 | 0.03 | 0.00 | 76 | 1011.8 |
| 20260507230658 | 59 | 14 | 0.0 | 0.0 | 0.00 | 0.03 | 0.00 | 75 | 1012.2 |
| 20260507225648 | 60 | 5 | 0.0 | 1.0 | 0.00 | 0.04 | 0.00 | 75 | 1012.4 |
| 20260507224650 | 60 | 5 | 0.0 | 0.0 | 0.00 | 0.04 | 0.00 | 74 | 1012.4 |
| 20260507222510 | 60 | 5 | 0.0 | 3.0 | 0.00 | 0.04 | 0.00 | 73 | 1012.3 |
| 20260507221515 | 60 | 5 | 1.0 | 3.0 | 0.00 | 0.04 | 0.00 | 73 | 1012.2 |
| 20260507220455 | 60 | 5 | 1.0 | 2.0 | 0.00 | 0.04 | 0.00 | 72 | 1012.2 |
| 20260507215512 | 60 | 9 | 0.0 | 2.0 | 0.00 | 0.04 | 0.04 | 72 | 1012.2 |
| 20260507214521 | 60 | 9 | 0.0 | 1.0 | 0.00 | 0.04 | 0.04 | 71 | 1012.2 |
| 20260507213523 | 60 | 9 | 0.0 | 1.0 | 0.00 | 0.04 | 0.04 | 71 | 1012.3 |
| 20260507212457 | 60 | 9 | 0.0 | 0.0 | 0.00 | 0.04 | 0.04 | 71 | 1012.4 |
| 20260507211506 | 60 | 9 | 0.0 | 0.0 | 0.00 | 0.04 | 0.04 | 72 | 1012.3 |
| 20260507210501 | 60 | 9 | 0.0 | 0.0 | 0.00 | 0.04 | 0.04 | 72 | 1012.4 |
| 20260507205438 | 59 | 9 | 0.0 | 1.0 | 0.00 | 0.04 | 0.04 | 71 | 1012.4 |
| 20260507204412 | 60 | 9 | 0.0 | 0.0 | 0.00 | 0.04 | 0.04 | 70 | 1012.4 |
| 20260507202311 | 61 | 9 | 0.0 | 0.0 | 0.00 | 0.04 | 0.04 | 69 | 1012.3 |
| 20260507201258 | 62 | 9 | 0.0 | 0.0 | 0.00 | 0.04 | 0.04 | 67 | 1012.4 |
| 20260507200235 | 63 | 13 | 0.0 | 1.0 | 0.00 | 0.04 | 0.04 | 65 | 1012.2 |
| 20260507195204 | 63 | 13 | 0.0 | 0.0 | 0.00 | 0.04 | 0.04 | 66 | 1012.2 |
| 20260507194150 | 63 | 13 | 0.0 | 0.0 | 0.00 | 0.04 | 0.04 | 67 | 1012.1 |
| 20260507193209 | 63 | 13 | 0.0 | 0.0 | 0.00 | 0.04 | 0.04 | 67 | 1012.1 |
| 20260507192201 | 63 | 13 | 0.0 | 0.0 | 0.00 | 0.04 | 0.04 | 68 | 1012.1 |
| 20260507190003 | 63 | 44 | 0.0 | 0.0 | 0.00 | 0.05 | 0.04 | 64 | 1011.9 |
| 20260507184934 | 64 | 44 | 0.0 | 0.0 | 0.00 | 0.05 | 0.04 | 64 | 1012.0 |
| 20260507183956 | 65 | 44 | 0.0 | 0.0 | 0.00 | 0.05 | 0.04 | 63 | 1012.1 |
| 20260507183021 | 65 | 44 | 0.0 | 0.0 | 0.00 | 0.05 | 0.04 | 62 | 1012.0 |
| 20260507182022 | 65 | 44 | 0.0 | 0.0 | 0.00 | 0.05 | 0.04 | 62 | 1012.1 |
| 20260507181012 | 65 | 44 | 0.0 | 0.0 | 0.00 | 0.05 | 0.04 | 63 | 1012.0 |
| 20260507180034 | 66 | 44 | 0.0 | 0.0 | 0.00 | 0.05 | 0.04 | 63 | 1011.9 |
| 20260507173847 | 66 | 44 | 0.0 | 0.0 | 0.00 | 0.05 | 0.04 | 60 | 1011.7 |
| 20260507171735 | 67 | 44 | 0.0 | 0.0 | 0.00 | 0.06 | 0.04 | 61 | 1011.7 |
| 20260507165552 | 69 | 44 | 0.0 | 0.0 | 0.00 | 0.06 | 0.04 | 59 | 1011.6 |
| 20260507164607 | 69 | 44 | 0.0 | 0.0 | 0.00 | 0.06 | 0.04 | 60 | 1011.5 |
| 20260507163629 | 68 | 44 | 0.0 | 0.0 | 0.00 | 0.06 | 0.04 | 60 | 1011.5 |
| 20260507162619 | 67 | 44 | 0.0 | 0.0 | 0.00 | 0.06 | 0.04 | 61 | 1011.5 |
| 20260507161554 | 67 | 44 | 0.0 | 0.0 | 0.00 | 0.06 | 0.04 | 61 | 1011.6 |
| 20260507160559 | 68 | 44 | 0.0 | 0.0 | 0.00 | 0.06 | 0.04 | 61 | 1011.7 |
| 20260507155536 | 69 | 44 | 0.0 | 0.0 | 0.00 | 0.06 | 0.04 | 59 | 1011.8 |
| 20260507154516 | 69 | 49 | 0.0 | 0.0 | 0.00 | 0.06 | 0.04 | 56 | 1011.8 |
| 20260507153523 | 69 | 48 | 1.0 | 3.0 | 0.00 | 0.06 | 0.04 | 59 | 1011.9 |
| 20260507152546 | 69 | 62 | 0.0 | 3.0 | 0.00 | 0.06 | 0.04 | 60 | 1011.8 |
| 20260507151553 | 69 | 63 | 0.0 | 1.0 | 0.00 | 0.06 | 0.04 | 59 | 1011.9 |
| 20260507150604 | 70 | 62 | 0.0 | 0.0 | 0.00 | 0.07 | 0.04 | 60 | 1011.9 |
| 20260507145533 | 69 | 53 | 0.0 | 0.0 | 0.00 | 0.07 | 0.04 | 59 | 1012.0 |
| 20260507144522 | 69 | 63 | 1.0 | 3.0 | 0.00 | 0.07 | 0.04 | 60 | 1012.1 |
| 20260507143536 | 69 | 228 | 0.0 | 1.0 | 0.00 | 0.07 | 0.04 | 62 | 1012.1 |
| 20260507142541 | 69 | 223 | 0.0 | 0.0 | 0.00 | 0.07 | 0.04 | 62 | 1012.2 |
| 20260507141601 | 69 | 223 | 0.0 | 0.0 | 0.00 | 0.07 | 0.04 | 60 | 1012.4 |
| 20260507140615 | 70 | 223 | 0.0 | 2.0 | 0.00 | 0.07 | 0.04 | 59 | 1012.4 |
| 20260507135636 | 69 | 223 | 0.0 | 0.0 | 0.00 | 0.07 | 0.04 | 60 | 1012.6 |
| 20260507134616 | 70 | 223 | 0.0 | 0.0 | 0.00 | 0.07 | 0.04 | 60 | 1012.6 |
| 20260507133631 | 70 | 223 | 0.0 | 1.0 | 0.00 | 0.07 | 0.04 | 60 | 1012.8 |
| 20260507132636 | 70 | 223 | 0.0 | 2.0 | 0.00 | 0.07 | 0.04 | 58 | 1012.8 |
| 20260507130457 | 70 | 223 | 1.0 | 4.0 | 0.00 | 0.07 | 0.04 | 61 | 1013.0 |
| 20260507125426 | 69 | 283 | 1.0 | 6.0 | 0.00 | 0.07 | 0.04 | 61 | 1013.1 |
| 20260507124437 | 69 | 208 | 3.0 | 8.0 | 0.00 | 0.07 | 0.04 | 60 | 1013.1 |
| 20260507123406 | 69 | 238 | 2.0 | 8.0 | 0.00 | 0.07 | 0.04 | 58 | 1013.0 |
| 20260507122410 | 70 | 178 | 3.0 | 7.0 | 0.00 | 0.07 | 0.04 | 59 | 1013.0 |
| 20260507121410 | 70 | 228 | 1.0 | 4.0 | 0.00 | 0.07 | 0.04 | 58 | 1013.1 |
| 20260507120400 | 69 | 144 | 0.0 | 2.0 | 0.00 | 0.07 | 0.04 | 60 | 1013.1 |
| 20260507115340 | 68 | 100 | 2.0 | 6.0 | 0.00 | 0.07 | 0.04 | 62 | 1013.1 |
| 20260507114402 | 68 | 158 | 2.0 | 6.0 | 0.00 | 0.07 | 0.04 | 62 | 1013.2 |
| 20260507113353 | 68 | 125 | 1.0 | 6.0 | 0.00 | 0.07 | 0.04 | 62 | 1013.2 |
| 20260507112341 | 67 | 215 | 4.0 | 7.0 | 0.00 | 0.07 | 0.04 | 64 | 1013.3 |
| 20260507111335 | 67 | 165 | 2.0 | 8.0 | 0.00 | 0.07 | 0.04 | 66 | 1013.4 |
| 20260507110330 | 67 | 121 | 2.0 | 8.0 | 0.00 | 0.07 | 0.04 | 66 | 1013.5 |
| 20260507105322 | 66 | 230 | 2.0 | 6.0 | 0.00 | 0.07 | 0.04 | 67 | 1013.5 |
| 20260507104253 | 66 | 227 | 1.0 | 5.0 | 0.00 | 0.07 | 0.04 | 69 | 1013.6 |
| 20260507103301 | 65 | 156 | 2.0 | 7.0 | 0.00 | 0.07 | 0.04 | 70 | 1013.7 |
| 20260507102325 | 66 | 215 | 2.0 | 7.0 | 0.00 | 0.07 | 0.04 | 71 | 1013.8 |
| 20260507101350 | 66 | 240 | 3.0 | 7.0 | 0.00 | 0.07 | 0.04 | 71 | 1013.8 |
| 20260507100407 | 65 | 234 | 2.0 | 5.0 | 0.00 | 0.07 | 0.04 | 72 | 1013.7 |
| 20260507093147 | 64 | 202 | 1.0 | 4.0 | 0.00 | 0.07 | 0.04 | 76 | 1013.8 |
| 20260507092200 | 63 | 218 | 1.0 | 4.0 | 0.00 | 0.07 | 0.04 | 78 | 1013.9 |
| 20260507091139 | 63 | 213 | 1.0 | 5.0 | 0.00 | 0.07 | 0.04 | 79 | 1014.1 |
| 20260507090120 | 63 | 213 | 2.0 | 8.0 | 0.00 | 0.07 | 0.04 | 78 | 1014.1 |
| 20260507085133 | 63 | 94 | 1.0 | 7.0 | 0.00 | 0.07 | 0.04 | 78 | 1014.0 |
| 20260507084102 | 63 | 126 | 1.0 | 5.0 | 0.00 | 0.07 | 0.04 | 81 | 1013.9 |
| 20260507083045 | 62 | 190 | 2.0 | 8.0 | 0.00 | 0.07 | 0.04 | 82 | 1014.0 |
| 20260507080916 | 60 | 203 | 3.0 | 7.0 | 0.00 | 0.07 | 0.04 | 85 | 1014.1 |
| 20260507075940 | 60 | 192 | 3.0 | 7.0 | 0.00 | 0.07 | 0.04 | 85 | 1014.1 |
| 20260507074924 | 60 | 153 | 2.0 | 6.0 | 0.00 | 0.07 | 0.04 | 87 | 1013.9 |
| 20260507073942 | 59 | 202 | 2.0 | 7.0 | 0.00 | 0.07 | 0.04 | 88 | 1014.0 |
| 20260507072933 | 58 | 219 | 2.0 | 7.0 | 0.00 | 0.07 | 0.04 | 88 | 1013.9 |
| 20260507071904 | 58 | 223 | 3.0 | 8.0 | 0.00 | 0.07 | 0.04 | 88 | 1014.0 |
| 20260507070835 | 58 | 234 | 4.0 | 8.0 | 0.00 | 0.07 | 0.04 | 89 | 1014.0 |
| 20260507065856 | 57 | 214 | 3.0 | 7.0 | 0.00 | 0.07 | 0.04 | 89 | 1013.9 |
| 20260507064838 | 57 | 198 | 3.0 | 7.0 | 0.00 | 0.07 | 0.04 | 90 | 1013.8 |
| 20260507063836 | 57 | 199 | 3.0 | 8.0 | 0.00 | 0.07 | 0.04 | 90 | 1013.8 |
| 20260507062806 | 56 | 209 | 4.0 | 8.0 | 0.00 | 0.07 | 0.04 | 90 | 1013.7 |
| 20260507054421 | 55 | 170 | 0.0 | 6.0 | 0.00 | 0.07 | 0.04 | 92 | 1013.7 |
| 20260507053407 | 55 | 166 | 2.0 | 12.0 | 0.00 | 0.07 | 0.04 | 92 | 1013.7 |
| 20260507051301 | 55 | 148 | 3.0 | 10.0 | 0.00 | 0.08 | 0.04 | 92 | 1013.6 |
| 20260507050226 | 55 | 141 | 2.0 | 6.0 | 0.00 | 0.08 | 0.04 | 92 | 1013.5 |
| 20260507045231 | 55 | 206 | 4.0 | 9.0 | 0.00 | 0.08 | 0.04 | 92 | 1013.4 |
| 20260507043106 | 54 | 192 | 5.0 | 12.0 | 0.00 | 0.08 | 0.04 | 92 | 1013.1 |
| 20260507042119 | 55 | 165 | 4.0 | 11.0 | 0.00 | 0.08 | 0.04 | 92 | 1013.0 |
| 20260507041111 | 55 | 194 | 5.0 | 11.0 | 0.00 | 0.08 | 0.04 | 92 | 1012.9 |
| 20260507040126 | 55 | 204 | 4.0 | 10.0 | 0.00 | 0.08 | 0.04 | 92 | 1012.9 |
| 20260507035144 | 55 | 175 | 4.0 | 10.0 | 0.00 | 0.08 | 0.04 | 92 | 1012.7 |
| 20260507034110 | 55 | 167 | 5.0 | 10.0 | 0.00 | 0.08 | 0.04 | 92 | 1012.7 |
| 20260507033102 | 55 | 191 | 4.0 | 10.0 | 0.00 | 0.08 | 0.04 | 92 | 1012.7 |
| 20260507032046 | 55 | 173 | 5.0 | 10.0 | 0.00 | 0.08 | 0.04 | 92 | 1012.7 |
| 20260507031035 | 55 | 212 | 5.0 | 9.0 | 0.00 | 0.08 | 0.04 | 92 | 1012.7 |
| 20260507030048 | 55 | 198 | 4.0 | 8.0 | 0.00 | 0.08 | 0.04 | 92 | 1012.8 |